Location: Gellin
(53.4498°N, 14.3207°E)
Time: 23:24:34
(UTC+00:00)

Meteor 1-21 - Pass Details

Date: 03 March 2021
Orbit: 845 x 887 km, 81.2° (Epoch: 12 April)

Event Time Altitude Azimuth Distance (km) Brightness Sun altitude
Rises 19:50:14 0° 347° (NNW) 3,440 8.0 -27.6°
Reaches altitude 10° 19:52:41 10° 349° (N) 2,505 7.1 -27.9°
Enters shadow 19:57:38 63° 25° (NNE) 963 4.4 -28.5°
